Tracking 23758 objects as of 27-Oct-2021
HD Live streaming from Space Station
objects crossing your sky now

IRIDIUM 33 DEB

Track IRIDIUM 33 DEB now!
10-day predictions


NORAD ID: 39792
Int'l Code: 1997-051AAZ
Perigee: 734.1 km
Apogee: 1,013.7 km
Inclination: 86.4 °
Period: 102.3 minutes
Semi major axis: 7244 km
RCS: Unknown
Launch date: September 14, 1997
Source: United States (US)
Launch site: TYURATAM MISSILE AND SPACE COMPLEX (TTMTR)

Note: This is SATELLITE DEBRIS
aabbcc
Your satellite tracking list
Your tracking list is empty




NASA's NSSDC Master Catalog

Two Line Element Set (TLE):
1 39792U 97051AAZ 21299.45231464  .00002336  00000-0  11541-2 0  9992
2 39792  86.4229 112.7218 0192972 210.8322 148.1414 14.07843100379441
Source of the keplerian elements: AFSPC